Location: Zürich
(47.3769°N, 8.5417°E)
Time: 10:25:12
(UTC+02:00)

ISS - Pass Details

Date: 23 May 2021
Orbit: 417 x 422 km, 51.6° (Epoch: 13 June)

Event Time Altitude Azimuth Distance (km) Brightness Sun altitude
Rises 23:46:07 0° 293° (WNW) 2,368 0.8 -18.5°
Reaches altitude 10° 23:48:14 10° 297° (WNW) 1,503 -0.3 -18.6°
Maximum altitude 23:51:36 67° 20° (NNE) 458 -3.5 -18.9°
Enters shadow 23:52:27 45° 85° (E) 583 -3.2 -18.9°
